Location: Chena
(64.8152°N, 147.9227°W)
Time: 01:08:37
(UTC+00:00)

Vanguard 2 - Pass Details

Date: 05 March 2021
Orbit: 552 x 2938 km, 32.9° (Epoch: 10 April)

Event Time Altitude Azimuth Distance (km) Brightness Sun altitude
Exits shadow 12:43:07 - 176° (S) 5,370 11.5 -24.6°
Reaches altitude 10° 12:46:08 10° 165° (SSE) 5,289 11.5 -24.4°
Maximum altitude 12:50:13 11° 149° (SSE) 5,363 11.7 -24.1°
Drops below altitude 10° 12:54:31 10° 134° (SE) 5,644 11.9 -23.7°
Sets 13:04:08 0° 109° (ESE) 6,793 12.8 -23.0°
